CW9461 Weather Reports


time (UTC)temp
F
wind
direction
speed
knots
gust
knots
rain 1hr
in
rain 24hr
in
rain mn
in
humidity
%
barometer
mb
20260504025105 60 126 0.9 2.6 0.00 0.00 0.00 65 1003.7
20260504024106 61 44 1.7 4.3 0.00 0.00 0.00 64 1003.4
20260504023106 62 183 0.9 4.3 0.00 0.00 0.00 62 1003.4
20260504022605 63 128 0.9 2.6 0.00 0.00 0.00 61 1003.4
20260504022107 63 155 0.0 1.7 0.00 0.00 0.00 61 1003.4
20260504021607 63 193 0.9 4.3 0.00 0.00 0.00 60 1003.4
20260504021105 64 111 0.9 5.2 0.00 0.00 0.00 59 1003.0
20260504020605 64 139 0.9 2.6 0.00 0.00 0.00 59 1003.0
20260504020106 64 175 1.7 5.2 0.00 0.00 0.00 59 1003.0
20260504015605 64 248 0.9 4.3 0.00 0.00 0.00 60 1003.0
20260504015105 64 218 1.7 7.0 0.00 0.00 0.00 60 1003.0
20260504014605 63 225 2.6 5.2 0.00 0.00 0.00 60 1003.0
20260504014105 63 205 2.6 6.1 0.00 0.00 0.00 59 1003.0
20260504013605 63 234 2.6 6.1 0.00 0.00 0.00 57 1003.1
20260504013105 64 235 1.7 7.0 0.00 0.00 0.00 56 1003.4
20260504011607 65 234 2.6 7.0 0.00 0.00 0.00 54 1003.1
20260504011105 65 248 1.7 5.2 0.00 0.00 0.00 54 1003.4
20260504010605 66 159 1.7 4.3 0.00 0.00 0.00 53 1003.4
20260504010105 66 222 1.7 6.1 0.00 0.00 0.00 53 1003.4
20260504005605 66 244 0.9 5.2 0.00 0.00 0.00 54 1003.1
20260504005106 66 236 0.9 6.1 0.00 0.00 0.00 54 1003.1
20260504004605 65 210 0.9 7.8 0.00 0.00 0.00 55 1003.1
20260504004104 65 220 1.7 5.2 0.00 0.00 0.00 55 1003.4
20260504003606 64 192 2.6 8.7 0.00 0.00 0.00 55 1003.0
20260504003106 65 246 3.5 7.0 0.00 0.00 0.00 55 1003.1
20260504002605 66 242 3.5 7.0 0.00 0.00 0.00 54 1003.0
20260504002105 66 205 1.7 5.2 0.00 0.00 0.00 54 1003.0
20260504001605 66 259 2.6 5.2 0.00 0.00 0.00 54 1003.4
20260504000605 66 188 2.6 7.0 0.00 0.00 0.00 54 1003.0
20260504000105 66 190 2.6 7.0 0.00 0.00 0.00 55 1003.0
20260503235105 66 246 4.3 8.7 0.00 0.00 0.00 56 1003.0
20260503234605 65 221 2.6 8.7 0.00 0.00 0.00 57 1003.0
20260503234105 65 178 2.6 7.8 0.00 0.00 0.00 57 1002.7
20260503233606 65 230 4.3 11.3 0.00 0.00 0.00 57 1002.7
20260503233105 65 238 4.3 8.7 0.00 0.00 0.00 57 1002.4
20260503232605 65 232 4.3 10.4 0.00 0.00 0.00 57 1002.7
20260503232105 65 236 5.2 10.4 0.00 0.00 0.00 58 1002.7
20260503231106 65 229 2.6 7.8 0.00 0.00 0.00 57 1002.7
20260503225605 65 191 4.3 8.7 0.00 0.00 0.00 57 1002.7
20260503225104 65 225 4.3 13.0 0.00 0.00 0.00 56 1002.7
20260503224605 66 230 3.5 6.1 0.00 0.00 0.00 56 1002.7
20260503223105 65 178 1.7 8.7 0.00 0.00 0.00 58 1002.7
20260503222105 66 232 4.3 8.7 0.00 0.00 0.00 57 1003.0
20260503221605 66 219 1.7 5.2 0.00 0.00 0.00 57 1003.0
20260503221106 66 335 2.6 6.1 0.00 0.00 0.00 57 1003.0
20260503220605 65 192 2.6 7.0 0.00 0.00 0.00 57 1003.0
20260503220105 65 233 3.5 10.4 0.00 0.00 0.00 58 1003.0
20260503215605 65 230 4.3 8.7 0.00 0.00 0.00 58 1003.0
20260503215105 65 251 3.5 8.7 0.00 0.00 0.00 57 1003.0
20260503214606 65 216 3.5 7.0 0.00 0.00 0.00 56 1003.4
20260503213106 65 198 2.6 7.8 0.00 0.00 0.00 57 1003.1
20260503212606 65 251 3.5 7.0 0.00 0.00 0.00 56 1003.1
20260503212105 66 197 2.6 7.0 0.00 0.00 0.00 56 1003.0
20260503211604 66 161 2.6 7.0 0.00 0.00 0.00 57 1003.0
20260503211105 65 182 2.6 7.0 0.00 0.00 0.00 59 1003.0
20260503210604 64 228 3.5 7.8 0.00 0.00 0.00 59 1003.0
20260503210105 64 326 2.6 7.8 0.00 0.00 0.00 58 1003.0
20260503205605 65 240 2.6 7.8 0.00 0.00 0.00 57 1003.0
20260503205104 66 227 2.6 7.8 0.00 0.00 0.00 56 1003.0
20260503204606 66 153 4.3 7.0 0.00 0.00 0.00 56 1003.0
20260503204105 66 157 2.6 7.0 0.00 0.00 0.00 56 1003.0
20260503203605 66 275 2.6 10.4 0.00 0.00 0.00 56 1003.0
20260503203105 66 195 2.6 10.4 0.00 0.00 0.00 56 1003.0
20260503202605 66 146 1.7 5.2 0.00 0.00 0.00 56 1003.0
20260503202105 66 212 2.6 7.0 0.00 0.00 0.00 54 1003.0
20260503201605 67 223 2.6 8.7 0.00 0.00 0.00 55 1003.0
20260503201104 67 152 1.7 8.7 0.00 0.00 0.00 56 1003.0
20260503200604 66 138 2.6 7.0 0.00 0.00 0.00 56 1003.1
20260503200105 66 216 2.6 7.0 0.00 0.00 0.00 57 1003.1
20260503195604 65 215 2.6 6.1 0.00 0.00 0.00 59 1003.4
20260503194606 64 238 2.6 7.0 0.00 0.00 0.00 61 1003.4
20260503194105 64 214 3.5 7.8 0.00 0.00 0.00 62 1003.4
20260503193604 63 244 2.6 7.0 0.00 0.00 0.00 63 1003.4
20260503193105 63 257 1.7 10.4 0.00 0.00 0.00 64 1003.7
20260503192605 63 223 4.3 7.0 0.00 0.00 0.00 65 1003.7
20260503192105 62 262 1.7 6.1 0.00 0.00 0.00 68 1003.7
20260503191606 61 146 1.7 4.3 0.00 0.00 0.00 69 1003.7
20260503190105 60 220 2.6 6.1 0.00 0.00 0.00 70 1004.0
20260503185605 60 241 4.3 7.0 0.00 0.00 0.00 70 1003.8
20260503184605 60 222 2.6 7.0 0.00 0.00 0.00 70 1004.0
20260503184104 60 229 2.6 6.1 0.00 0.00 0.00 70 1004.0
20260503183604 60 235 3.5 7.0 0.00 0.00 0.00 70 1003.7
20260503183104 60 224 5.2 7.8 0.00 0.00 0.00 69 1003.7
20260503182605 60 246 0.9 7.8 0.00 0.00 0.00 68 1003.7
20260503182105 61 238 3.5 7.8 0.00 0.00 0.00 67 1003.7
20260503181605 62 237 2.6 5.2 0.00 0.00 0.00 67 1003.7
20260503180604 61 262 1.7 5.2 0.00 0.00 0.00 67 1003.4
20260503180105 61 239 1.7 5.2 0.00 0.00 0.00 67 1003.7
20260503175105 61 244 1.7 4.3 0.00 0.00 0.00 67 1003.4
20260503173604 61 237 2.6 7.0 0.00 0.00 0.00 65 1003.4
20260503173105 62 251 4.3 8.7 0.00 0.00 0.00 64 1003.4
20260503172604 63 252 2.6 7.0 0.00 0.00 0.00 63 1003.4
20260503171605 63 142 1.7 6.1 0.00 0.00 0.00 64 1003.0
20260503171104 63 204 1.7 5.2 0.00 0.00 0.00 64 1003.4
20260503170604 63 243 1.7 4.3 0.00 0.00 0.00 66 1003.1
20260503170105 62 113 1.7 7.0 0.00 0.00 0.00 67 1003.1
20260503160105 58 192 0.9 7.0 0.00 0.00 0.00 74 1003.3
20260503150606 56 215 1.7 2.6 0.00 0.00 0.00 79 1003.0
20260503150105 56 202 0.0 4.3 0.00 0.00 0.00 79 1002.8
20260503140105 54 137 0.9 4.3 0.00 0.00 0.00 84 1002.4
20260503131104 53 155 0.0 1.7 0.00 0.00 0.00 83 1001.7
20260503130604 53 247 0.0 0.0 0.00 0.00 0.00 82 1001.7
20260503130104 53 157 0.0 0.9 0.00 0.00 0.00 82 1001.7
20260503120104 54 148 0.9 2.6 0.00 0.00 0.00 82 1001.4
20260503110604 53 156 0.9 2.6 0.00 0.00 0.00 83 1001.4
20260503110105 53 158 1.7 4.3 0.00 0.00 0.00 83 1001.7
20260503100104 54 188 0.9 2.6 0.00 0.00 0.00 82 1001.6
20260503090104 55 202 0.9 2.6 0.00 0.00 0.00 82 1001.7
20260503081104 55 188 1.7 7.0 0.00 0.00 0.00 82 1002.0
20260503080604 55 157 0.9 2.6 0.00 0.00 0.00 82 1002.0
20260503080104 55 189 0.9 2.6 0.00 0.00 0.00 81 1002.0
20260503072604 55 202 0.9 1.7 0.00 0.00 0.00 81 1002.4
20260503072104 55 225 0.9 2.6 0.00 0.00 0.00 81 1002.4
20260503071605 55 202 0.9 4.3 0.00 0.00 0.00 81 1002.4
20260503071104 55 145 0.9 2.6 0.00 0.00 0.00 81 1002.4
20260503070605 55 187 0.9 2.6 0.00 0.00 0.00 81 1002.4
20260503070105 55 156 0.9 4.3 0.00 0.00 0.00 81 1002.4
20260503060106 55 202 0.9 4.3 0.00 0.00 0.00 81 1002.7
20260503055105 55 225 0.9 1.7 0.00 0.00 0.00 81 1002.7
20260503054606 55 213 0.9 1.7 0.00 0.00 0.00 81 1002.8
20260503053605 55 227 1.7 2.6 0.00 0.00 0.00 81 1002.7
20260503053106 55 225 0.9 4.3 0.00 0.00 0.00 81 1002.7
20260503052105 55 228 1.7 2.6 0.00 0.00 0.00 81 1002.8
20260503051606 55 202 0.0 1.7 0.00 0.00 0.00 81 1003.0
20260503051106 55 149 1.7 2.6 0.00 0.00 0.00 80 1003.0
20260503050606 55 229 2.6 5.2 0.00 0.00 0.00 80 1003.0
20260503050106 55 233 0.9 4.3 0.00 0.00 0.00 80 1002.8
20260503045605 55 225 0.9 4.3 0.00 0.00 0.00 80 1002.8
20260503045105 55 225 1.7 4.3 0.00 0.00 0.00 80 1002.7
20260503044606 55 225 0.9 5.2 0.00 0.00 0.00 80 1002.7
20260503044105 56 277 1.7 2.6 0.00 0.00 0.00 80 1002.7
20260503043106 56 250 0.9 2.6 0.00 0.00 0.00 80 1002.7
20260503042606 56 247 0.9 1.7 0.00 0.00 0.00 79 1002.6
20260503042105 56 142 0.9 2.6 0.00 0.00 0.00 79 1002.4
20260503041606 56 166 1.7 4.3 0.00 0.00 0.00 79 1002.4
20260503040605 56 212 2.6 5.2 0.00 0.00 0.00 80 1002.4
20260503040106 56 263 1.7 4.3 0.00 0.00 0.00 80 1002.4
20260503035606 56 275 1.7 2.6 0.00 0.00 0.00 80 1002.4
20260503035105 56 218 0.9 2.6 0.00 0.00 0.00 80 1002.4
20260503034605 56 94 0.9 4.3 0.00 0.00 0.00 80 1002.4
20260503033606 56 242 0.9 2.6 0.00 0.00 0.00 80 1002.3
20260503033105 56 202 1.7 4.3 0.00 0.00 0.00 80 1002.0
20260503032606 56 182 0.9 4.3 0.00 0.00 0.00 80 1002.0
20260503032106 56 107 0.0 2.6 0.00 0.00 0.00 79 1002.0
20260503031105 56 222 0.9 2.6 0.00 0.00 0.00 78 1001.7
20260503030106 57 158 0.9 2.6 0.00 0.00 0.00 77 1001.7